Regional Weather Roundup
Issued by NWS

Home | Current Version | Previous Version | Text Only | Print | Product List | Glossary Off
Versions: 1 2 3 4 5 6 7 8 9 10 11 12 13 14 15 16 17 18 19 20 21 22 23 24 25 26 27 28 29 30 31 32 33 34 35 36 37 38 39 40 41 42 43 44 45 46 47 48 49 50

000
ASUS43 KLSX 032207
RWRMO

WEATHER SUMMARY FOR MISSOURI
NATIONAL WEATHER SERVICE SPRINGFIELD MO
500 PM CDT FRI JUL 03 2015

NOTE: "FAIR" INDICATES FEW OR NO CLOUDS BELOW 12,000 FEET WITH NO
       SIGNIFICANT WEATHER AND/OR OBSTRUCTIONS TO VISIBILITY.
       CURRENT SKY AND/OR WEATHER CONDITIONS ARE NOT AVAILABLE FOR
       CHILLICOTHE AND FARMINGTON.

MOZ001>031-035>038-043-044-053-054-032300-
...NORTHERN AND WESTERN MISSOURI...

CITY           SKY/WX    TMP DP  RH WIND       PRES   REMARKS
KANSAS CTY INT SUNNY     79  54  41 N6        29.95F
KANSAS C DTWN  SUNNY     81  58  45 N8        29.93F
LEE`S SUMMIT   SUNNY     78  57  48 NE10      29.94F
ST JOSEPH      SUNNY     80  58  46 NE6       29.95F
CHILLICOTHE      N/A     81  59  47 N5        29.95F
KIRKSVILLE     SUNNY     79  59  50 VRB3      29.95F

$$
MOZ066>068-077>081-088>096-101>105-032300-
...SOUTHWEST MISSOURI...

CITY           SKY/WX    TMP DP  RH WIND       PRES   REMARKS
SPRINGFIELD    MOSUNNY   79  67  66 NE13      29.90S
JOPLIN         PTSUNNY   74  66  76 N7        29.92R

$$
MOZ032>034-039>042-045>050-055>058-069>072-032300-
...CENTRAL MISSOURI...

CITY           SKY/WX    TMP DP  RH WIND       PRES   REMARKS
COLUMBIA       MOSUNNY   80  61  52 NE8       29.92F
JEFFERSON CITY MOSUNNY   81  59  47 N9        29.90F
ROLLA          SUNNY     79  61  53 VRB6      29.90F
SEDALIA        SUNNY     80  61  52 N7        29.94F
WHITEMAN AFB   SUNNY     79  63  57 NE9       29.92F
WARRENSBURG    SUNNY     77  59  53 N7        29.93S
OSAGE BEACH    PTSUNNY   79  63  57 N5        29.91S

$$
MOZ051-052-059>065-032300-
...EAST CENTRAL MISSOURI...

CITY           SKY/WX    TMP DP  RH WIND       PRES   REMARKS
ST LOUIS INTL  MOSUNNY   82  63  52 N10       29.89F
SPIRIT OF STL  MOSUNNY   82  62  50 N6        29.88F
ST CHARLES     MOSUNNY   79  67  66 N9        29.89S

$$
MOZ072>076-082>087-097>100-106>115-032300-
...SOUTH CENTRAL AND SOUTHEAST MISSOURI...

CITY           SKY/WX    TMP DP  RH WIND       PRES   REMARKS
CAPE GIRARDEAU PTSUNNY   78  70  76 W6        29.85F
FARMINGTON     PTSUNNY   79  66  65 N9        29.92F
POPLAR BLUFF   LGT RAIN  78  71  79 SW13      29.84F
WEST PLAINS    PTSUNNY   77  68  73 E3        29.91F

$$


USA.gov is the U.S. government's official web portal to all federal, state and local government web resources and services.